{"data":{"norad_id":58598,"epoch":"2026-09-19T19:51:54.627840Z","epoch_age_seconds":69282,"freshness":"FRESH","line1":"1 58598U 23200K   26262.82771560  .02423738  43051-2  52769-2 0  9991","line2":"2 58598  42.9647  60.5452 0029377 306.7061  53.1118 15.97591671154350","mean_motion":15.97591671,"eccentricity":0.0029377,"inclination_deg":42.9647,"raan_deg":60.5452,"arg_perigee_deg":306.7061,"mean_anomaly_deg":53.1118,"bstar":0.0052769,"rev_number":15435,"period_min":90.135672721594,"perigee_km":261.53988034899,"apogee_km":300.66557745217,"semimajor_km":6659.2397289006,"source":"CELESTRAK","updated_at":"2026-09-20T09:00:41.198475Z"}}